Location: Kapla
(46.2483°N, 15.0094°E)
Time: 18:44:20
(UTC+00:00)

YAOGAN 1 - Pass Details

Date: 03 March 2021
Orbit: 618 x 620 km, 97.9° (Epoch: 15 April)

Event Time Altitude Azimuth Distance (km) Brightness Sun altitude
Rises 17:36:49 0° 164° (SSE) 2,884 5.8 -9.0°
Reaches altitude 10° 17:39:00 10° 164° (SSE) 1,983 5.0 -9.4°
Maximum altitude 17:43:19 88° 75° (ENE) 628 2.6 -10.2°
Drops below altitude 10° 17:47:41 10° 347° (NNW) 1,999 5.4 -10.9°
Sets 17:49:53 0° 348° (NNW) 2,910 6.2 -11.3°
